This is the latest recevied weather packets stored in our database for station/object KE5BM-13. If no packets are shown the sender has not sent any weather packets the latest 10 day(s).
| Time | Temp. | Humidity | Pressure | Rain* | Wind** | Luminosity | Snow |
|---|---|---|---|---|---|---|---|
| 1777923686 | 17.78° C | 50% | 1009.2 hPa | 0 mm | - | - | - |
| 1777923386 | 17.78° C | 44% | 1009.3 hPa | 0 mm | - | - | - |
| 1777923085 | 17.78° C | 45% | 1009.3 hPa | 0 mm | - | - | - |
| 1777922785 | 17.22° C | 45% | 1009.6 hPa | 0 mm | - | - | - |
| 1777922486 | 17.22° C | 44% | 1009.6 hPa | 0 mm | - | - | - |
| 1777922184 | 17.22° C | 44% | 1009.6 hPa | 0 mm | - | - | - |
| 1777921883 | 17.22° C | 44% | 1009.6 hPa | 0 mm | - | - | - |
| 1777921585 | 17.22° C | 45% | 1009.7 hPa | 0 mm | - | - | - |
| 1777921283 | 17.22° C | 45% | 1009.7 hPa | 0 mm | - | - | - |
| 1777920982 | 17.78° C | 48% | 1009.8 hPa | 0 mm | - | - | - |
| 1777920681 | 17.78° C | 48% | 1009.7 hPa | 0 mm | - | - | - |
| 1777920380 | 17.78° C | 49% | 1009.7 hPa | 0 mm | - | - | - |
| 1777920080 | 17.78° C | 51% | 1009.6 hPa | 0 mm | - | - | - |
| 1777919779 | 17.22° C | 46% | 1009.5 hPa | 0 mm | - | - | - |
| 1777919477 | 17.22° C | 46% | 1009.7 hPa | 0 mm | - | - | - |
| 1777919178 | 17.22° C | 45% | 1009.5 hPa | 0 mm | - | - | - |
| 1777918875 | 17.22° C | 47% | 1009.3 hPa | 0 mm | - | - | - |
| 1777918576 | 17.22° C | 46% | 1009.4 hPa | 0 mm | - | - | - |
| 1777918275 | 17.22° C | 48% | 1009.5 hPa | 0 mm | - | - | - |
| 1777917975 | 17.22° C | 46% | 1009.3 hPa | 0 mm | - | - | - |
| 1777917674 | 17.22° C | 49% | 1009.4 hPa | 0 mm | - | - | - |
| 1777917374 | 17.22° C | 47% | 1009.4 hPa | 0 mm | - | - | - |
| 1777917075 | 17.22° C | 48% | 1009.6 hPa | 0 mm | - | - | - |
| 1777916773 | 16.67° C | 47% | 1009.7 hPa | 0 mm | - | - | - |
| 1777916471 | 16.67° C | 45% | 1010 hPa | 0 mm | - | - | - |
* Rain latest hour (hover to see other rain measurements)
** Current wind speed in m/s (hover to see current wind gust speed)